Weather History for KTNU - February, 2013

Change the Weather History Date:

Wednesday, February 27, 2013

  Actual Average Record
Temperature  
Mean Temperature 28 °F -  
Max Temperature 30 °F 41 °F 62 °F (1981)
Min Temperature 24 °F 23 °F -9 °F (2015)
Degree Days  
Heating Degree Days 37    
Moisture  
Dew Point 26 °F    
Average Humidity 92    
Maximum Humidity 100    
Minimum Humidity 86    
Precipitation  
Precipitation 0.01 in - - ()
Sea Level Pressure  
Sea Level Pressure 29.82 in    
Wind  
Wind Speed 16 mph (NNW)    
Max Wind Speed 22 mph    
Max Gust Speed 29 mph    
Visibility 2 miles    
Events Rain , Snow    
Averages and records for this station are not official NWS values.
T = Trace of Precipitation, MM = Missing Value Source: NWS Daily Summary

Daily Weather History Graph

Daily Weather History Graph

Search for Another Location

Airport or City:

Trip Planner

Search our weather history database for the weather conditions in past years. The results will help you decide how hot, cold, wet, or windy it might be!

Date:

Astronomy

Feb. 27, 2013 Rise Set
Actual Time 6:49 AM CST 6:00 PM CST
Civil Twilight 6:21 AM CST 6:28 PM CST
Nautical Twilight 5:49 AM CST 7:00 PM CST
Astronomical Twilight 5:17 AM CST 7:32 PM CST
Moon 8:25 PM CST 7:22 AM CST
Length of Visible Light 12h 06m
Length of Day
11h 10m
Waning Gibbous, 96% of the Moon is Illuminated
Feb 27
Waning Gibbous
Mar 4
Last Quarter
Mar 11
New
Mar 19
First Quarter
Mar 27
Full

Hourly Weather History & Observations

Time (CST) Temp. Windchill Dew Point Humidity Pressure Visibility Wind Dir Wind Speed Gust Speed Precip Events Conditions
12:15 AM 30.2 °F 19.8 °F 28.4 °F 93% 29.75 in 1.0 mi NNW 13.8 mph 20.7 mph N/A Snow Light Snow
12:35 AM 30.2 °F 19.3 °F 28.4 °F 93% 29.75 in 1.0 mi NNW 15.0 mph - N/A Snow Light Snow
12:55 AM 30.2 °F 19.8 °F 28.4 °F 93% 29.75 in 1.0 mi NNW 13.8 mph - 0.01 in Snow Light Snow
1:15 AM 30.2 °F 19.3 °F 28.4 °F 93% 29.75 in 2.0 mi NNW 15.0 mph - N/A Snow Light Snow
1:35 AM 30.2 °F 20.2 °F 28.4 °F 93% 29.75 in 1.2 mi NNW 12.7 mph - N/A Snow Light Snow
1:55 AM 30.2 °F 19.8 °F 28.4 °F 93% 29.75 in 1.2 mi NNW 13.8 mph - N/A Snow Light Snow
2:15 AM 30.2 °F 19.8 °F 28.4 °F 93% 29.74 in 1.2 mi NNW 13.8 mph - N/A Snow Light Snow
2:35 AM 30.2 °F 20.2 °F 28.4 °F 93% 29.75 in 1.2 mi NNW 12.7 mph - N/A Snow Light Snow
2:55 AM 30.2 °F 20.8 °F 28.4 °F 93% 29.74 in 1.0 mi NNW 11.5 mph - N/A Snow Light Snow
3:15 AM 28.4 °F 17.5 °F 28.4 °F 100% 29.74 in 1.5 mi NNW 13.8 mph - N/A Snow Light Snow
3:35 AM 28.4 °F 18.0 °F 28.4 °F 100% 29.75 in 3.0 mi NNW 12.7 mph - N/A Snow Light Snow
3:55 AM 28.4 °F 18.5 °F 28.4 °F 100% 29.75 in 3.0 mi NNW 11.5 mph - N/A Snow Light Snow
4:15 AM 28.4 °F 18.0 °F 26.6 °F 93% 29.75 in 2.0 mi NW 12.7 mph - N/A Snow Light Snow
4:35 AM 28.4 °F 17.5 °F 26.6 °F 93% 29.75 in 1.5 mi NNW 13.8 mph - N/A Snow Light Snow
4:55 AM 28.4 °F 17.0 °F 26.6 °F 93% 29.75 in 1.2 mi NNW 15.0 mph - N/A Snow Light Snow
5:15 AM 28.4 °F 17.0 °F 26.6 °F 93% 29.75 in 1.8 mi NNW 15.0 mph 20.7 mph N/A Snow Light Snow
5:35 AM 28.4 °F 16.2 °F 26.6 °F 93% 29.75 in 2.0 mi NNW 17.3 mph - N/A Snow Light Snow
5:55 AM 28.4 °F 16.6 °F 26.6 °F 93% 29.75 in 2.5 mi NNW 16.1 mph - N/A Snow Light Snow
6:15 AM 28.4 °F 17.0 °F 26.6 °F 93% 29.76 in 3.0 mi NNW 15.0 mph - N/A Snow Light Snow
6:55 AM 28.4 °F 16.6 °F 26.6 °F 93% 29.76 in 1.8 mi NNW 16.1 mph - N/A Snow Light Snow
7:15 AM 26.6 °F 13.8 °F 24.8 °F 93% 29.76 in 2.0 mi NNW 17.3 mph - N/A   Overcast
7:35 AM 26.6 °F 13.8 °F 24.8 °F 93% 29.77 in 1.8 mi NNW 17.3 mph - N/A   Overcast
7:55 AM 26.6 °F 14.7 °F 24.8 °F 93% 29.77 in 1.8 mi NNW 15.0 mph - N/A Snow Light Snow
8:15 AM 26.6 °F 14.3 °F 24.8 °F 93% 29.78 in 1.8 mi NNW 16.1 mph - N/A   Overcast
8:35 AM 26.6 °F 14.3 °F 24.8 °F 93% 29.79 in 1.5 mi NNW 16.1 mph 21.9 mph N/A   Overcast
8:55 AM 28.4 °F 16.6 °F 24.8 °F 86% 29.79 in 1.2 mi NNW 16.1 mph - N/A Snow Light Snow
9:15 AM 28.4 °F 17.0 °F 26.6 °F 93% 29.79 in 1.8 mi NNW 15.0 mph 21.9 mph N/A Snow Light Snow
9:35 AM 28.4 °F 17.0 °F 26.6 °F 93% 29.79 in 3.0 mi NNW 15.0 mph - N/A Snow Light Snow
9:55 AM 28.4 °F 17.0 °F 24.8 °F 86% 29.79 in 4.0 mi NNW 15.0 mph 23.0 mph N/A Snow Light Snow
10:15 AM 28.4 °F 15.4 °F 24.8 °F 86% 29.80 in 3.0 mi NNW 19.6 mph - N/A Snow Light Snow
10:55 AM 28.4 °F 15.8 °F 24.8 °F 86% 29.81 in 3.0 mi NNW 18.4 mph - N/A Snow Light Snow
11:15 AM 28.4 °F 16.6 °F 24.8 °F 86% 29.81 in 6.0 mi NNW 16.1 mph - N/A   Mostly Cloudy
11:35 AM 28.4 °F 15.8 °F 26.6 °F 93% 29.81 in 1.2 mi NNW 18.4 mph - N/A   Mostly Cloudy
11:55 AM 28.4 °F 15.8 °F 26.6 °F 93% 29.81 in 2.0 mi NNW 18.4 mph 24.2 mph N/A Rain Light Freezing Rain
12:15 PM 30.2 °F 18.1 °F 26.6 °F 86% 29.81 in 3.0 mi NNW 18.4 mph - N/A Rain Light Freezing Rain
12:35 PM 30.2 °F 18.1 °F 26.6 °F 86% 29.80 in 2.0 mi NNW 18.4 mph 26.5 mph N/A Rain Light Freezing Rain
12:55 PM 30.2 °F 17.8 °F 26.6 °F 86% 29.80 in 0.8 mi NNW 19.6 mph 26.5 mph N/A Snow Light Snow
1:15 PM 30.2 °F 18.1 °F 26.6 °F 86% 29.80 in 1.0 mi NNW 18.4 mph 25.3 mph N/A   Mostly Cloudy
1:35 PM 28.4 °F 16.2 °F 26.6 °F 93% 29.81 in 0.8 mi NNW 17.3 mph - N/A Snow Light Snow
2:35 PM 28.4 °F 16.2 °F 26.6 °F 93% 29.82 in 1.2 mi NW 17.3 mph 26.5 mph N/A   Mostly Cloudy
2:55 PM 28.4 °F - 26.6 °F 93% 29.83 in 1.2 mi North - - N/A   Mostly Cloudy
3:15 PM 28.4 °F 15.8 °F 26.6 °F 93% 29.84 in 2.0 mi NW 18.4 mph - N/A   Mostly Cloudy
3:35 PM 28.4 °F 15.1 °F 26.6 °F 93% 29.84 in 1.2 mi NW 20.7 mph - N/A   Overcast
3:55 PM 28.4 °F 16.2 °F 26.6 °F 93% 29.85 in 1.5 mi NW 17.3 mph 28.8 mph N/A Snow Light Snow
4:15 PM 28.4 °F 15.8 °F 26.6 °F 93% 29.85 in 1.2 mi NW 18.4 mph 24.2 mph N/A Snow Light Snow
4:35 PM 28.4 °F 14.7 °F 26.6 °F 93% 29.85 in 1.2 mi NW 21.9 mph 27.6 mph N/A Snow Light Snow
4:55 PM 28.4 °F 15.4 °F 26.6 °F 93% 29.86 in 0.8 mi NW 19.6 mph - N/A Snow Light Snow
5:15 PM 28.4 °F 15.1 °F 26.6 °F 93% 29.86 in 1.0 mi NNW 20.7 mph - N/A Snow Light Snow
5:35 PM 28.4 °F 16.2 °F 26.6 °F 93% 29.87 in 1.5 mi NW 17.3 mph - N/A Snow Light Snow
5:55 PM 28.4 °F 16.2 °F 26.6 °F 93% 29.87 in 3.0 mi NW 17.3 mph 23.0 mph N/A Snow Light Snow
6:15 PM 28.4 °F 17.0 °F 26.6 °F 93% 29.88 in 1.8 mi NW 15.0 mph 21.9 mph N/A Snow Light Snow
6:35 PM 28.4 °F 16.2 °F 26.6 °F 93% 29.88 in 5.0 mi NW 17.3 mph - N/A Snow Light Snow
6:55 PM 28.4 °F 16.6 °F 26.6 °F 93% 29.89 in 3.0 mi NW 16.1 mph - N/A Snow Light Snow
7:15 PM 28.4 °F 16.6 °F 26.6 °F 93% 29.89 in 3.0 mi NNW 16.1 mph - N/A Snow Light Snow
7:35 PM 28.4 °F 16.6 °F 26.6 °F 93% 29.90 in 4.0 mi NW 16.1 mph - N/A Snow Light Snow
8:15 PM 28.4 °F 17.0 °F 26.6 °F 93% 29.90 in 5.0 mi NW 15.0 mph - N/A Snow Light Snow
8:35 PM 28.4 °F 16.6 °F 24.8 °F 86% 29.91 in 8.0 mi NW 16.1 mph - N/A Rain Light Freezing Rain
8:55 PM 28.4 °F 17.0 °F 24.8 °F 86% 29.91 in 10.0 mi NW 15.0 mph - N/A   Overcast
9:15 PM 28.4 °F - 24.8 °F 86% 29.91 in 6.0 mi North - - N/A Rain Light Freezing Rain
9:35 PM 28.4 °F 15.8 °F 24.8 °F 86% 29.92 in 5.0 mi NW 18.4 mph - N/A Rain Light Freezing Rain
9:55 PM 28.4 °F 15.4 °F 24.8 °F 86% 29.92 in 6.0 mi NW 19.6 mph - N/A   Overcast
10:35 PM 26.6 °F 13.1 °F 24.8 °F 93% 29.93 in 2.5 mi NNW 19.6 mph 27.6 mph N/A Snow Light Snow
10:55 PM 26.6 °F 13.1 °F 24.8 °F 93% 29.93 in 3.0 mi NW 19.6 mph - N/A Rain Light Freezing Rain
11:15 PM 26.6 °F 13.8 °F 23.0 °F 86% 29.94 in 2.5 mi NW 17.3 mph 27.6 mph N/A Rain Light Freezing Rain
11:35 PM 26.6 °F 13.8 °F 23.0 °F 86% 29.94 in 3.0 mi NW 17.3 mph - N/A Snow Light Snow
11:55 PM 24.8 °F 11.5 °F 23.0 °F 93% 29.94 in 4.0 mi NW 17.3 mph - N/A Rain Light Freezing Rain